CAPE
0 0 0 0 0 0 0 0 0 0 0 0 0 0 0 0 0 0 0 0 0 0 0 0 0 0 0 0 0 0 0 0 0 0 0 0 0 0 0 0 0 0 0 14 0
0 0 0 0 0 0 0 0 0 0 0 0 0 0 0 0 0 0 0 0 0 0 0 0 0 0 0 0 0 0 0 0 0 0 0 0 0 0 0 0 0 0 0 0 0
0 0 0 0 0 0 0 0 0 0 0 0 0 0 0 0 0 0 0 0 0 0 0 0 0 0 0 0 0 0 0 0 0 0 0 0 0 0 0 0 0 0 0 0 0
0 0 0 0 0 0 0 0 0 0 0 0 0 0 0 0 0 0 0 0 0 0 0 0 0 0 0 0 0 0 0 0 0 0 0 0 0 0 0 0 0 0 0 0 0
0 0 0 0 0 0 0 0 0 0 0 0 0 0 0 0 0 0 0 0 0 0 0 0 0 0 0 0 0 0 0 0 0 0 0 0 0 0 0 0 0 0 0 0 0
0 0 0 0 0 0 0 0 0 0 0 0 0 0 0 0 0 0 0 0 0 0 0 0 0 0 0 0 0 0 0 0 0 0 0 0 0 0 0 0 0 0 0 0 0
0 0 0 0 0 0 0 0 0 0 0 0 0 0 0 0 0 0 0 0 0 0 0 0 0 0 0 0 0 0 0 0 0 0 0 0 0 0 0 0 0 0 0 0 0
0 0 0 0 0 0 0 0 0 0 0 0 0 0 0 0 0 0 0 0 0 0 0 0 0 0 0 0 0 0 0 0 0 0 0 0 0 0 0 0 0 0 0 0 0
0 0 0 0 0 0 0 0 0 0 0 0 0 0 0 0 0 0 0 0 0 0 0 0 0 0 0 0 0 0 0 0 0 0 0 0 0 0 0 0 0 0 0 0 0
0 0 0 0 0 0 0 0 0 0 0 0 0 0 0 0 0 0 0 0 0 0 0 0 0 0 0 0 0 0 0 0 0 0 0 0 0 0 0 0 0 0 0 0 0
0 0 0 0 0 0 0 0 0 0 0 0 0 0 0 0 0 0 0 0 0 0 0 0 0 0 0 0 0 0 0 0 0 0 0 0 0 0 0 0 0 0 0 0 0
0 0 0 0 0 0 0 0 0 0 0 0 0 0 0 0 0 0 0 0 0 0 0 0 0 0 0 0 0 0 0 0 0 0 0 0 0 0 0 0 0 0 0 0 0
0 0 0 0 0 0 0 0 0 0 0 0 0 0 0 0 0 0 0 0 0 0 0 0 0 0 0 0 0 0 0 0 0 0 0 0 0 0 0 0 0 0 0 0 0
0 0 0 0 0 0 0 0 0 0 0 0 0 0 0 0 0 0 0 0 0 0 0 0 0 0 0 0 0 0 0 0 0 0 0 0 0 0 0 0 0 0 0 0 0
0 0 0 0 0 0 0 0 0 0 0 0 0 0 0 0 0 0 0 0 0 0 0 0 0 0 0 0 0 0 0 0 0 0 0 0 0 0 0 0 0 0 0 0 0
0 0 0 0 0 0 0 0 0 0 0 0 0 0 0 0 0 0 0 0 0 0 0 0 0 0 0 0 0 0 0 0 0 0 0 0 0 0 0 0 0 0 0 0 0
0 0 0 0 0 0 0 0 0 0 0 0 0 0 0 0 0 0 0 0 0 0 0 0 0 0 0 0 0 0 0 0 0 0 0 0 0 0 0 0 0 0 0 0 0
0 0 0 0 0 0 0 0 0 0 0 0 0 0 0 0 0 0 0 0 0 0 0 0 0 0 0 0 0 0 0 0 0 0 0 0 0 0 0 0 0 0 0 0 0
0 0 0 0 0 0 0 0 0 0 0 0 0 0 0 0 0 0 0 0 0 0 0 0 0 0 0 0 0 0 0 0 0 0 0 0 0 0 0 0 0 0 0 0 0
0 0 0 0 0 0 0 0 0 0 0 0 0 0 0 0 0 0 0 0 0 0 0 0 0 0 0 0 0 0 0 0 0 0 0 0 0 0 0 0 0 0 0 0 0
0 0 0 0 0 0 0 0 0 0 0 0 0 0 0 0 0 0 0 0 0 0 0 0 0 0 0 0 0 0 0 0 0 0 0 0 0 0 0 0 0 0 0 0 0
0 0 0 0 0 0 0 0 0 0 0 0 0 0 0 0 0 0 0 0 0 0 0 0 0 0 0 0 0 0 0 0 0 0 0 0 0 0 0 0 0 0 0 0 0
0 0 0 0 0 0 0 0 0 0 0 0 0 0 10 0 0 0 0 0 0 0 0 0 0 0 0 0 0 0 0 0 0 0 0 0 0 0 0 0 0 0 0 0 0
0 0 0 0 0 0 0 0 0 0 0 0 0 0 0 0 0 0 0 0 0 0 0 0 0 0 0 0 0 0 0 0 0 0 0 0 0 0 0 0 0 0 0 0 0
0 0 0 0 0 0 0 0 0 0 0 0 0 0 0 0 0 0 0 0 0 0 0 0 0 0 0 0 0 0 0 0 0 0 0 0 0 0 0 0 0 0 0 0 0
0 0 0 0 0 0 0 0 0 0 0 0 0 0 0 0 0 0 0 0 0 0 0 0 0 0 0 0 0 0 0 0 0 0 0 0 0 0 0 0 0 0 0 0 0
0 0 0 0 0 0 0 0 0 0 0 0 0 0 0 0 0 0 0 0 0 0 0 0 0 0 0 0 0 0 0 0 0 0 0 0 0 0 0 0 0 0 0 0 0
CIN
0 0 0 0 0 0 0 0 0 0 0 0 0 0 0 0 0 0 0 0 0 0 0 0 0 0 0 0 0 0 0 0 0 0 0 0 0 0 0 0 0 0 0 -272 0
0 0 0 0 0 0 0 0 0 0 0 0 0 0 0 0 0 0 0 0 0 0 0 0 0 0 0 0 0 0 0 0 0 0 0 0 0 0 0 0 0 0 0 0 0
0 0 0 0 0 0 0 0 0 0 0 0 0 0 0 0 0 0 0 0 0 0 0 0 0 0 0 0 0 0 0 0 0 0 0 0 0 0 0 0 0 0 0 0 0
0 0 0 0 0 0 0 0 0 0 0 0 0 0 0 0 0 0 0 0 0 0 0 0 0 0 0 0 0 0 0 0 0 0 0 0 0 0 0 0 0 0 0 0 0
0 0 0 0 0 0 0 0 0 0 0 0 0 0 0 0 0 0 0 0 0 0 0 0 0 0 0 0 0 0 0 0 0 0 0 0 0 0 0 0 0 0 0 0 0
0 0 0 0 0 0 0 0 0 0 0 0 0 0 0 0 0 0 0 0 0 0 0 0 0 0 0 0 0 0 0 0 0 0 0 0 0 0 0 0 0 0 0 0 0
0 0 0 0 0 0 0 0 0 0 0 0 0 0 0 0 0 0 0 0 0 0 0 0 0 0 0 0 0 0 0 0 0 0 0 0 0 0 0 0 0 0 0 0 0
0 0 0 0 0 0 0 0 0 0 0 0 0 0 0 0 0 0 0 0 0 0 0 0 0 0 0 0 0 0 0 0 0 0 0 0 0 0 0 0 0 0 0 0 0
0 0 0 0 0 0 0 0 0 0 0 0 0 0 0 0 0 0 0 0 0 0 0 0 0 0 0 0 0 0 0 0 0 0 0 0 0 0 0 0 0 0 0 0 0
0 0 0 0 0 0 0 0 0 0 0 0 0 0 0 0 0 0 0 0 0 0 0 0 0 0 0 0 0 0 0 0 0 0 0 0 0 0 0 0 0 0 0 0 0
0 0 0 0 0 0 0 0 0 0 0 0 0 0 0 0 0 0 0 0 0 0 0 0 0 0 0 0 0 0 0 0 0 0 0 0 0 0 0 0 0 0 0 0 0
0 0 0 0 0 0 0 0 0 0 0 0 0 0 0 0 0 0 0 0 0 0 0 0 0 0 0 0 0 0 0 0 0 0 0 0 0 0 0 0 0 0 0 0 0
0 0 0 0 0 0 0 0 0 0 0 0 0 0 0 0 0 0 0 0 0 0 0 0 0 0 0 0 0 0 0 0 0 0 0 0 0 0 0 0 0 0 0 0 0
0 0 0 0 0 0 0 0 0 0 0 0 0 0 0 0 0 0 0 0 0 0 0 0 0 0 0 0 0 0 0 0 0 0 0 0 0 0 0 0 0 0 0 0 0
0 0 0 0 0 0 0 0 0 0 0 0 0 0 0 0 0 0 0 0 0 0 0 0 0 0 0 0 0 0 0 0 0 0 0 0 0 0 0 0 0 0 0 0 0
0 0 0 0 0 0 0 0 0 0 0 0 0 0 0 0 0 0 0 0 0 0 0 0 0 0 0 0 0 0 0 0 0 0 0 0 0 0 0 0 0 0 0 0 0
0 0 0 0 0 0 0 0 0 0 0 0 0 0 0 0 0 0 0 0 0 0 0 0 0 0 0 0 0 0 0 0 0 0 0 0 0 0 0 0 0 0 0 0 0
0 0 0 0 0 0 0 0 0 0 0 0 0 0 0 0 0 0 0 0 0 0 0 0 0 0 0 0 0 0 0 0 0 0 0 0 0 0 0 0 0 0 0 0 0
0 0 0 0 0 0 0 0 0 0 0 0 0 0 0 0 0 0 0 0 0 0 0 0 0 0 0 0 0 0 0 0 0 0 0 0 0 0 0 0 0 0 0 0 0
0 0 0 0 0 0 0 0 0 0 0 0 0 0 0 0 0 0 0 0 0 0 0 0 0 0 0 0 0 0 0 0 0 0 0 0 0 0 0 0 0 0 0 0 0
0 0 0 0 0 0 0 0 0 0 0 0 0 0 0 0 0 0 0 0 0 0 0 0 0 0 0 0 0 0 0 0 0 0 0 0 0 0 0 0 0 0 0 0 0
0 0 0 0 0 0 0 0 0 0 0 0 0 0 0 0 0 0 0 0 0 0 0 0 0 0 0 0 0 0 0 0 0 0 0 0 0 0 0 0 0 0 0 0 0
0 0 0 0 0 0 0 0 0 0 0 0 0 0 -87 0 0 0 0 0 0 0 0 0 0 0 0 0 0 0 0 0 0 0 0 0 0 0 0 0 0 0 0 0 0
0 0 0 0 0 0 0 0 0 0 0 0 0 0 0 0 0 0 0 0 0 0 0 0 0 0 0 0 0 0 0 0 0 0 0 0 0 0 0 0 0 0 0 0 0
0 0 0 0 0 0 0 0 0 0 0 0 0 0 0 0 0 0 0 0 0 0 0 0 0 0 0 0 0 0 0 0 0 0 0 0 0 0 0 0 0 0 0 0 0
0 0 0 0 0 0 0 0 0 0 0 0 0 0 0 0 0 0 0 0 0 0 0 0 0 0 0 0 0 0 0 0 0 0 0 0 0 0 0 0 0 0 0 0 0
0 0 0 0 0 0 0 0 0 0 0 0 0 0 -34 0 0 0 0 0 0 0 0 0 0 0 0 0 0 0 0 0 0 0 0 0 0 0 0 0 0 0 0 0 0
Wind_Speed
24 24 23 22 21 21 20 19 18 18 18 18 18 17 18 18 18 17 18 13 12 12 14 15 14 16 15 14 13 11 11 11 12 11 11 11 13 16 17 18 20 19 19 18 20
25 24 24 22 21 20 20 19 19 19 19 18 18 18 18 18 18 18 17 11 11 13 14 14 15 16 11 13 13 10 10 11 12 12 12 10 12 11 13 17 18 20 21 21 20
27 27 26 24 23 21 20 20 19 19 19 19 18 19 18 18 16 16 15 14 10 12 14 15 14 12 10 11 11 10 10 9 13 11 10 11 11 11 13 14 15 16 18 19 19
28 28 28 26 24 23 21 20 20 20 19 19 19 19 19 16 13 16 13 11 11 12 16 16 15 12 12 12 14 12 9 10 9 9 12 11 8 11 9 10 14 15 16 16 16
30 30 29 29 26 25 23 21 20 20 20 20 20 19 15 15 15 15 11 10 12 12 14 15 13 13 14 15 16 9 13 8 7 9 11 9 9 8 8 10 11 12 12 13 15
31 31 31 30 28 26 23 21 20 20 19 20 19 17 13 15 14 13 10 11 12 13 14 13 14 16 13 15 13 15 13 9 7 9 11 10 9 11 7 9 9 9 10 12 14
33 32 32 32 30 28 25 23 21 20 20 19 17 15 13 10 15 12 9 14 16 16 15 15 15 16 16 15 18 14 14 14 10 8 11 9 9 11 8 8 7 8 10 12 14
34 34 33 33 32 30 26 23 22 20 18 16 14 14 12 14 16 15 11 22 23 21 18 19 18 17 14 19 17 15 16 17 14 7 8 6 12 12 9 8 7 7 8 10 12
36 36 35 35 34 32 27 24 22 15 16 15 15 13 14 19 12 17 7 15 13 17 17 17 16 12 14 14 15 15 13 15 18 4 7 7 10 8 9 8 8 8 9 9 11
37 37 37 36 35 33 27 23 16 15 15 14 14 15 15 14 12 10 8 11 13 13 14 13 13 13 14 13 10 11 15 17 15 11 3 6 11 9 6 7 7 7 7 7 8
38 38 38 37 36 31 24 17 21 18 17 20 18 18 22 15 12 11 12 12 13 14 14 16 14 12 13 11 11 14 15 18 19 15 8 6 12 9 6 5 4 4 4 5 6
39 39 38 37 36 26 22 20 19 24 28 21 12 17 17 17 17 20 11 10 12 16 17 16 15 15 13 12 15 16 18 17 16 16 13 11 13 20 8 2 1 2 2 3 5
40 39 39 38 35 19 25 17 27 24 22 25 13 13 11 8 11 14 8 11 14 15 17 14 17 13 11 12 12 15 14 16 16 18 15 17 18 18 19 16 9 3 2 4 6
41 40 39 39 22 27 23 25 29 21 24 21 16 14 7 8 12 9 6 10 14 13 17 15 16 13 13 13 13 13 15 16 17 19 20 19 24 18 24 18 8 3 5 8 12
41 41 39 33 30 25 24 29 28 17 25 15 12 9 3 3 9 11 8 11 15 13 15 15 16 13 13 14 14 15 16 18 17 18 21 20 23 20 17 13 9 7 8 13 15
43 43 40 28 24 24 28 29 18 19 22 17 9 8 5 6 11 9 9 13 15 14 15 17 19 17 15 14 15 14 17 19 19 20 23 19 19 19 15 10 10 10 10 15 16
45 46 42 27 22 16 26 18 17 18 19 17 14 8 4 7 9 9 9 10 13 14 15 18 17 17 13 15 17 16 17 20 20 19 19 20 20 20 18 11 9 10 13 15 17
47 47 30 23 21 20 17 17 21 19 21 21 21 15 8 10 12 11 11 13 16 14 14 17 20 14 15 15 17 14 14 16 20 20 21 23 21 20 18 10 11 10 12 16 18
44 36 26 26 17 13 15 25 22 19 19 22 23 17 17 15 17 17 16 12 12 8 13 13 18 17 14 12 11 15 17 17 18 21 24 22 23 21 17 14 11 12 14 17 20
39 30 27 28 8 11 20 26 24 20 22 24 23 20 19 24 22 21 20 20 17 10 10 14 18 14 12 12 17 18 12 18 19 19 20 21 23 20 13 11 11 14 16 19 19
29 25 25 19 10 17 25 27 28 27 24 26 29 29 28 28 22 20 21 23 16 15 11 11 15 16 14 16 16 17 16 18 16 17 20 24 23 16 12 11 12 13 15 19 21
25 24 24 18 16 18 22 25 26 27 27 28 28 31 32 32 26 23 24 22 17 11 13 14 15 17 15 17 18 20 18 15 18 20 21 24 29 20 15 12 17 16 18 20 21
28 20 21 19 20 22 23 25 25 28 26 26 28 30 31 33 29 25 24 24 15 13 11 12 19 19 21 20 18 17 16 16 18 21 19 22 24 24 21 17 16 16 18 20 21
22 22 20 18 18 20 24 24 26 26 26 26 28 29 31 32 29 27 24 21 17 15 12 12 17 18 20 21 18 18 19 19 18 22 24 23 27 26 21 18 18 16 18 20 21
19 18 18 20 21 24 23 23 25 25 26 26 25 25 27 29 28 28 23 21 18 13 14 15 20 19 20 19 21 21 21 20 20 22 24 28 27 26 16 16 15 16 19 20 23
20 19 20 23 23 24 23 23 26 27 26 29 30 30 26 24 26 29 27 23 20 19 17 17 21 19 22 22 23 24 24 26 26 24 24 25 26 18 16 14 16 18 20 24 27
19 18 18 22 22 24 21 24 26 27 26 25 31 28 30 27 27 28 26 28 23 17 18 17 17 19 23 19 23 27 22 21 24 25 24 24 18 11 14 17 19 22 23 25 28
Wind_Direction
340 335 327 316 308 300 292 283 274 271 271 269 269 270 274 276 276 297 261 333 338 329 301 281 305 285 289 283 289 320 318 332 329 340 344 13 44 32 33 40 26 36 37 46 66
340 336 331 321 308 297 287 279 275 274 272 269 265 267 272 278 277 250 221 23 360 317 310 316 301 294 308 285 297 320 330 334 349 338 16 36 45 28 32 39 36 42 46 58 56
338 336 333 326 317 304 291 279 272 271 270 269 266 267 269 276 300 316 294 95 31 330 321 324 319 340 335 328 329 331 322 354 330 4 27 30 18 23 45 31 55 58 59 59 58
335 335 333 329 321 312 299 286 277 270 268 270 272 277 279 333 327 319 347 32 22 350 307 308 314 335 326 328 323 309 334 342 350 358 346 358 26 349 25 50 85 76 73 65 53
331 331 331 330 322 316 306 293 283 269 264 276 286 294 331 327 320 300 1 360 334 350 328 320 325 323 315 321 317 336 325 357 359 356 357 13 10 16 44 65 76 78 64 52 41
328 328 328 327 323 316 306 296 283 271 263 278 297 303 337 318 331 339 47 5 344 332 320 331 325 308 328 322 331 319 330 10 10 7 7 14 44 11 56 68 65 67 54 43 35
326 325 324 324 321 315 304 297 291 275 279 291 309 321 338 3 304 331 24 309 301 319 314 316 323 311 310 316 305 327 327 318 349 359 354 54 4 1 99 83 65 53 43 37 41
325 324 322 320 318 312 301 292 296 323 328 323 340 329 342 321 302 303 335 255 250 253 278 274 298 303 303 289 313 319 320 310 326 352 3 22 350 5 107 89 71 58 36 36 35
323 321 320 318 316 310 297 290 314 358 350 345 336 343 327 291 330 257 10 319 323 286 293 293 305 310 310 317 319 323 333 328 318 38 353 6 360 35 118 110 93 102 93 67 42
320 319 318 315 314 310 296 321 353 351 353 341 331 317 317 336 331 345 10 338 330 333 323 326 320 318 315 321 328 333 329 327 335 320 17 339 341 18 106 130 123 110 104 89 65
318 317 316 313 312 309 327 343 331 328 329 309 304 300 298 316 323 334 326 330 322 326 325 320 317 318 325 334 331 331 327 323 320 323 325 330 334 4 130 119 122 123 101 67 57
316 314 314 310 308 311 336 335 348 316 302 308 310 296 298 307 306 296 326 326 326 313 315 313 308 313 318 329 323 319 317 319 323 318 320 328 329 325 351 178 312 155 116 54 32
314 312 312 308 302 328 316 333 319 323 317 307 310 295 297 310 308 305 330 320 314 312 316 314 309 319 321 320 329 327 330 320 318 314 326 322 320 324 330 339 336 335 22 27 11
314 311 312 310 317 307 308 316 310 328 311 310 314 310 300 310 308 311 312 319 322 312 313 314 305 313 315 317 319 317 320 324 321 316 310 318 312 323 322 336 355 36 16 1 1
313 309 309 315 303 303 305 302 307 335 300 324 326 346 341 312 333 301 305 305 313 307 307 308 305 312 313 318 318 317 318 317 323 320 315 315 315 327 340 351 2 3 359 355 357
313 307 307 313 309 302 293 295 321 309 298 312 333 324 326 290 305 312 300 303 316 306 296 298 298 303 314 321 319 325 320 319 316 316 311 317 320 326 336 340 344 349 348 349 352
313 306 302 302 299 309 303 305 299 292 308 304 304 307 291 302 292 293 291 300 309 307 291 302 300 298 308 313 314 316 318 316 316 313 310 316 319 323 328 337 341 342 342 348 351
311 307 317 302 294 293 299 289 282 297 288 305 299 290 280 292 280 282 286 287 291 305 308 302 298 310 306 305 314 313 316 322 317 316 315 318 314 322 332 351 341 348 350 347 346
314 325 320 314 299 281 275 271 276 286 299 296 299 284 277 282 287 275 274 275 289 291 307 317 307 316 307 316 321 316 312 317 317 317 313 313 315 321 328 333 336 339 339 340 345
324 328 327 318 321 274 269 269 276 284 292 294 288 293 285 280 280 280 274 282 276 278 292 307 312 314 320 316 316 313 324 314 313 316 315 317 316 320 324 324 324 328 331 339 346
340 332 343 339 331 284 270 272 274 279 291 283 280 282 282 281 283 283 286 286 280 277 281 296 305 311 308 302 305 310 308 315 318 315 314 314 317 335 326 318 322 322 331 339 343
339 329 340 331 313 297 284 280 283 283 288 284 280 278 277 277 279 282 284 288 295 275 270 285 300 302 302 315 306 306 307 299 299 307 309 309 308 329 323 322 329 333 337 339 344
331 336 336 336 307 298 294 287 289 285 285 281 279 278 278 275 278 281 285 292 287 279 265 276 294 297 306 309 314 311 313 311 310 311 304 306 314 330 332 329 338 338 340 343 344
337 327 326 335 331 311 299 292 289 289 284 286 281 283 277 273 274 279 283 292 286 282 281 284 293 295 295 306 314 305 302 307 310 307 308 307 312 320 329 335 340 343 344 344 345
332 327 326 315 311 310 304 298 293 290 282 287 281 289 282 273 274 274 279 284 285 280 282 287 289 296 303 307 307 305 301 302 303 307 307 312 315 322 327 337 347 348 347 346 347
320 322 321 309 309 308 304 297 293 291 290 283 276 278 286 278 280 276 281 276 272 277 279 288 290 296 297 303 305 303 301 296 299 305 308 314 318 332 341 351 348 347 347 346 345
322 322 316 306 306 306 303 300 296 295 290 289 284 278 273 277 289 285 288 280 280 264 273 279 285 291 294 305 308 304 307 302 301 304 305 308 321 345 346 347 345 342 343 346 346